Home   Weather   Sahuarita   Past weeks
Flag for USA

Past Weather in Sahuarita, Arizona, USA — Yesterday and Last 2 Weeks

Now
69 °F

Sunny.


Feels Like: 69 °F
Forecast: 82 / 55 °F
Wind: 10 mph from South

Location: Tucson International Airport

Current Time: May 19, 2019 at 10:00:22 am

Latest Report: May 19, 2019 at 8:53 am


Visibility: 10 mi

Pressure: 29.81 "Hg (27.09 "Hg at 824m altitude)

Humidity: 24%

Dew Point: 31 °F

Location of SahuaritaLocation

Past Weather in Sahuarita — Graph

°F

Sahuarita Temperature Yesterday

Maximum temperature yesterday: 81 °F (at 3:53 pm)
Minimum temperature yesterday: 52 °F (at 5:53 am)
Average temperature yesterday: 69 °F

High & Low Weather Summary for the Past Weeks

 TemperatureHumidityPressure
High95 °F (May 15, 1:53 pm)83% (May 12, 12:53 am)30.03 "Hg (May 12, 12:53 am)
Low52 °F (May 18, 5:53 am)6% (May 5, 11:53 am)29.62 "Hg (May 9, 3:53 pm)
Average72 °F31%29.79 "Hg
* Reported May 4 8:53 am — May 19 8:53 am, Sahuarita. Weather by CustomWeather, © 2019

Note: Actual official high and low records may vary slightly from our data, if they occured in-between our weather recording intervals... More about our weather records

Advertising

Sahuarita Weather History for the Previous 24 Hours

Scroll right to see more
 ConditionsComfort  
Time TempWeatherWind HumidityBarometerVisibility
8:53 am
Sun, May 19
69 °FSunny.10 mph24%29.81 "Hg10 mi
7:53 am66 °FSunny.7 mph24%29.80 "Hg10 mi
6:53 am64 °FSunny.10 mph32%29.79 "Hg10 mi
5:53 am62 °FSunny.5 mph31%29.79 "Hg10 mi
4:53 am61 °FClear.3 mph35%29.78 "Hg10 mi
3:53 am62 °FClear.5 mph35%29.77 "Hg10 mi
2:53 am65 °FClear.6 mph33%29.77 "Hg10 mi
1:53 am64 °FClear.6 mph35%29.77 "Hg10 mi
12:53 am65 °FClear.5 mph32%29.79 "Hg10 mi
11:53 pm
Sat, May 18
67 °FClear.No wind25%29.80 "Hg10 mi
10:53 pm68 °FClear.5 mph21%29.81 "Hg10 mi
9:53 pm72 °FClear.10 mph15%29.80 "Hg10 mi
8:53 pm72 °FClear.3 mph17%29.80 "Hg10 mi
7:53 pm75 °FClear.6 mph14%29.79 "Hg10 mi
6:53 pm78 °FSunny.7 mph12%29.77 "Hg10 mi
5:53 pm81 °FSunny.13 mph11%29.77 "Hg10 mi
4:53 pm81 °FSunny.9 mph10%29.77 "Hg10 mi
3:53 pm81 °FSunny.13 mph11%29.78 "Hg10 mi
2:53 pm80 °FPassing clouds.10 mph11%29.79 "Hg10 mi
2:00 pm79 °FSunny.6 mph10%29.92 "Hg10 mi
12:53 pm76 °FSunny.No wind15%29.85 "Hg10 mi
11:53 am74 °FSunny.No wind17%29.85 "Hg10 mi
10:53 am73 °FSunny.No wind18%29.85 "Hg10 mi
Weather by CustomWeather, © 2019

See weather overview